This is the latest recevied weather packets stored in our database for station/object KD7ECD. If no packets are shown the sender has not sent any weather packets the latest 10 day(s).
| Time | Temp. | Humidity | Pressure | Rain* | Wind** | Luminosity | Snow |
|---|---|---|---|---|---|---|---|
| 1777592370 | 23.89° C | 52% | 1015 hPa | 0 mm | - | 363 W/m² | - |
| 1777591769 | 23.89° C | 53% | 1015.2 hPa | 0 mm | - | 369 W/m² | - |
| 1777591166 | 23.89° C | 53% | 1014.9 hPa | 0 mm | - | 380 W/m² | - |
| 1777590564 | 23.89° C | 53% | 1015 hPa | 0 mm | - | 372 W/m² | - |
| 1777589963 | 24.44° C | 52% | 1015.2 hPa | 0 mm | - | 419 W/m² | - |
| 1777589363 | 23.89° C | 52% | 1015.3 hPa | 0 mm | - | 563 W/m² | - |
| 1777588762 | 23.89° C | 53% | 1015.4 hPa | 0 mm | - | 558 W/m² | - |
| 1777588158 | 24.44° C | 53% | 1015.5 hPa | 0 mm | - | 655 W/m² | - |
| 1777587555 | 24.44° C | 53% | 1015.4 hPa | 0 mm | - | 685 W/m² | - |
| 1777586952 | 23.89° C | 53% | 1015.6 hPa | 0 mm | - | 592 W/m² | - |
| 1777586349 | 24.44° C | 53% | 1015.8 hPa | 0 mm | - | 709 W/m² | - |
| 1777585747 | 24.44° C | 54% | 1015.7 hPa | 0 mm | - | 745 W/m² | - |
| 1777585143 | 24.44° C | 53% | 1015.9 hPa | 0 mm | - | 709 W/m² | - |
| 1777584543 | 23.89° C | 53% | 1015.7 hPa | 0 mm | - | 668 W/m² | - |
| 1777583938 | 23.89° C | 52% | 1015.9 hPa | 0 mm | - | 713 W/m² | - |
| 1777583333 | 24.44° C | 50% | 1015.9 hPa | 0 mm | - | 725 W/m² | - |
| 1777582731 | 23.33° C | 52% | 1016.2 hPa | 0 mm | - | 766 W/m² | - |
| 1777582127 | 23.33° C | 52% | 1016.2 hPa | 0 mm | - | 787 W/m² | - |
| 1777581525 | 23.33° C | 52% | 1016.3 hPa | 0 mm | - | 821 W/m² | - |
| 1777580921 | 22.78° C | 51% | 1016.4 hPa | 0 mm | - | 840 W/m² | - |
| 1777580317 | 22.22° C | 51% | 1016.3 hPa | 0 mm | - | 617 W/m² | - |
| 1777579715 | 22.22° C | 51% | 1016.5 hPa | 0 mm | - | 779 W/m² | - |
| 1777579115 | 22.22° C | 50% | 1016.4 hPa | 0 mm | - | 691 W/m² | - |
| 1777578511 | 21.67° C | 50% | 1016.5 hPa | 0 mm | - | 839 W/m² | - |
| 1777577907 | 21.67° C | 49% | 1016.8 hPa | 0 mm | - | 900 W/m² | - |
* Rain latest hour (hover to see other rain measurements)
** Current wind speed in m/s (hover to see current wind gust speed)